GW2438 Weather Reports


time (UTC)temp
F
wind
direction
speed
knots
gust
knots
rain 1hr
in
rain 24hr
in
rain mn
in
humidity
%
barometer
mb
20260506201651 61 264 2.6 5.2 0.00 0.00 0.00 70 1020.7
20260506200549 61 246 2.6 6.1 0.00 0.00 0.00 70 1020.7
20260506195548 61 269 3.5 7.0 0.00 0.00 0.00 69 1020.7
20260506194546 62 262 4.3 9.6 0.00 0.00 0.00 70 1020.5
20260506193544 61 233 3.5 7.8 0.00 0.00 0.00 71 1020.5
20260506192543 61 264 1.7 3.5 0.00 0.00 0.00 72 1020.5
20260506191542 60 229 3.5 7.8 0.00 0.00 0.00 74 1020.5
20260506190539 59 214 1.7 6.1 0.00 0.00 0.00 75 1020.5
20260506185538 59 238 0.9 1.7 0.00 0.00 0.00 76 1020.5
20260506184556 58 239 0.9 1.7 0.00 0.00 0.00 75 1020.6
20260506183534 59 270 0.9 2.6 0.00 0.00 0.00 74 1020.6
20260506182533 60 214 2.6 7.0 0.00 0.00 0.00 75 1020.5
20260506181531 60 199 1.7 3.5 0.00 0.00 0.00 77 1020.4
20260506180529 59 235 0.9 3.5 0.00 0.00 0.00 77 1020.3
20260506175528 58 260 0.9 3.5 0.00 0.00 0.00 77 1020.4
20260506174526 58 285 0.9 3.5 0.00 0.00 0.00 76 1020.4
20260506173524 59 261 0.0 1.7 0.00 0.00 0.00 77 1020.3
20260506172542 58 231 1.7 7.0 0.00 0.00 0.00 78 1020.4
20260506171541 58 228 2.6 6.1 0.00 0.00 0.00 78 1020.4
20260506170519 57 219 3.5 7.0 0.00 0.00 0.00 78 1020.3
20260506165539 57 183 3.5 6.1 0.00 0.00 0.00 78 1020.3
20260506164516 57 240 3.5 7.8 0.00 0.00 0.00 79 1020.3
20260506163619 57 242 3.5 7.0 0.00 0.00 0.00 79 1020.0
20260506162613 57 244 3.5 6.1 0.00 0.00 0.00 80 1020.0
20260506161611 56 200 1.7 3.5 0.00 0.00 0.00 82 1019.9
20260506160609 56 229 1.7 2.6 0.00 0.00 0.00 82 1020.1
20260506155608 55 230 2.6 5.2 0.00 0.00 0.00 83 1020.1
20260506154606 55 236 0.9 2.6 0.00 0.00 0.00 83 1020.1
20260506153604 55 235 1.7 5.2 0.00 0.00 0.00 84 1020.1
20260506152602 55 215 0.9 2.6 0.00 0.00 0.00 85 1019.9
20260506151621 55 227 0.9 1.7 0.00 0.00 0.00 85 1019.8
20260506150559 54 217 0.9 2.6 0.00 0.00 0.00 85 1020.0
20260506145618 54 225 1.7 5.2 0.00 0.00 0.00 85 1020.0
20260506144556 54 227 1.7 3.5 0.00 0.00 0.00 85 1020.0
20260506143554 54 228 2.6 7.0 0.00 0.00 0.00 85 1019.8
20260506142552 54 220 0.9 2.6 0.00 0.00 0.00 86 1019.6
20260506141552 54 223 1.7 3.5 0.00 0.00 0.00 86 1019.7
20260506140549 54 199 0.9 3.5 0.00 0.00 0.00 86 1019.7
20260506135548 53 229 1.7 3.5 0.00 0.00 0.00 86 1019.6
20260506134546 53 252 0.9 2.6 0.00 0.00 0.00 86 1019.8
20260506133543 53 235 1.7 3.5 0.00 0.00 0.00 86 1019.6
20260506132542 53 228 2.6 6.1 0.00 0.00 0.00 86 1019.5
20260506131601 53 231 2.6 5.2 0.00 0.00 0.00 86 1019.3
20260506130539 53 232 1.7 3.5 0.00 0.00 0.00 86 1019.2
20260506125537 53 232 1.7 3.5 0.00 0.00 0.00 86 1019.3
20260506124536 53 235 1.7 3.5 0.00 0.00 0.00 86 1019.2
20260506123533 53 202 2.6 3.5 0.00 0.00 0.00 87 1018.9
20260506122531 53 178 0.9 1.7 0.00 0.00 0.00 87 1019.1
20260506121550 53 222 0.0 0.9 0.00 0.00 0.00 87 1019.1
20260506120528 53 0.0 0.0 0.00 0.00 0.00 87 1019.0
20260506115527 53 224 0.0 0.9 0.00 0.00 0.00 87 1018.8
20260506114525 53 0.0 0.0 0.00 0.00 0.00 86 1018.7
20260506113523 53 215 0.9 2.6 0.00 0.00 0.00 86 1018.7
20260506112541 53 243 0.9 2.6 0.00 0.00 0.00 86 1018.9
20260506111520 53 230 1.7 2.6 0.00 0.00 0.00 85 1018.7
20260506110518 53 252 1.7 3.5 0.00 0.00 0.00 85 1018.7
20260506105536 54 244 1.7 3.5 0.00 0.00 0.00 85 1018.6
20260506104655 54 243 0.9 1.7 0.00 0.00 0.00 85 1018.5
20260506103613 54 242 0.9 1.7 0.00 0.00 0.00 85 1018.4
20260506102612 53 241 0.9 1.7 0.00 0.00 0.00 85 1018.3
20260506101611 53 231 0.9 1.7 0.00 0.00 0.00 85 1018.1
20260506100608 53 245 0.9 1.7 0.00 0.00 0.00 85 1018.1
20260506095606 53 235 1.7 2.6 0.00 0.00 0.00 85 1018.0
20260506094625 53 243 0.9 1.7 0.00 0.00 0.00 86 1017.9
20260506093603 53 243 0.9 2.6 0.00 0.00 0.00 86 1017.8
20260506092602 53 241 1.7 3.5 0.00 0.00 0.00 86 1017.8
20260506091559 53 238 0.9 1.7 0.00 0.00 0.00 87 1017.8
20260506090558 52 235 0.9 3.5 0.00 0.00 0.00 87 1017.8
20260506085557 52 224 0.0 1.7 0.00 0.00 0.00 87 1017.8
20260506084555 52 240 0.0 1.7 0.00 0.00 0.00 87 1017.7
20260506083553 51 0.0 0.0 0.00 0.00 0.00 86 1017.7
20260506082551 51 228 0.0 0.9 0.00 0.00 0.00 85 1017.8
20260506081550 51 241 0.0 0.9 0.00 0.00 0.00 85 1017.7
20260506080548 52 240 0.0 1.7 0.00 0.00 0.00 85 1017.6
20260506072541 53 252 0.9 3.5 0.00 0.00 0.00 84 1017.3
20260506071539 53 252 0.9 2.6 0.00 0.00 0.00 83 1017.1
20260506070538 53 247 0.9 2.6 0.00 0.00 0.00 83 1017.1
20260506061529 55 243 2.6 6.1 0.00 0.00 0.00 81 1016.6
20260506060548 55 234 1.7 3.5 0.00 0.00 0.00 81 1016.4
20260506050516 57 240 2.6 3.5 0.00 0.00 0.00 78 1016.0
20260506044613 58 239 2.6 5.2 0.00 0.00 0.00 77 1015.9
20260506043612 58 252 1.7 5.2 0.00 0.00 0.00 77 1015.9
20260506042610 59 246 1.7 3.5 0.00 0.00 0.00 76 1015.8
20260506041608 59 253 0.9 2.6 0.00 0.00 0.00 76 1015.7
20260506040606 60 245 0.9 2.6 0.00 0.00 0.00 75 1015.7
20260506035605 60 248 1.7 2.6 0.00 0.00 0.00 74 1015.6
20260506034603 60 241 1.7 2.6 0.00 0.00 0.00 73 1015.5
20260506033602 61 243 0.9 1.7 0.00 0.00 0.00 72 1015.3
20260506032620 62 238 0.9 1.7 0.00 0.00 0.00 71 1015.1
20260506031558 62 250 0.9 2.6 0.00 0.00 0.00 71 1015.2
20260506030556 63 238 0.9 1.7 0.00 0.00 0.00 70 1015.2
20260506025614 63 237 0.9 2.6 0.00 0.00 0.00 69 1015.0
20260506024552 64 261 0.9 2.6 0.00 0.00 0.00 68 1015.0
20260506023551 65 239 0.9 3.5 0.00 0.00 0.00 68 1015.0
20260506022610 65 242 0.9 3.5 0.00 0.00 0.00 67 1015.1
20260506021547 65 258 1.7 3.5 0.00 0.00 0.00 67 1015.1
20260506020546 65 280 0.9 2.6 0.00 0.00 0.00 67 1015.1
20260506015544 65 259 1.7 3.5 0.00 0.00 0.00 68 1015.0
20260506014543 65 242 1.7 5.2 0.00 0.00 0.00 68 1015.0
20260506013541 65 230 1.7 5.2 0.00 0.00 0.00 68 1014.9
20260506012539 65 244 1.7 6.1 0.00 0.00 0.00 68 1015.1
20260506011538 65 236 2.6 6.1 0.00 0.00 0.00 67 1015.1
20260506010536 65 233 2.6 5.2 0.00 0.00 0.00 67 1015.1
20260506005534 65 254 2.6 5.2 0.00 0.00 0.00 66 1015.1
20260506004533 66 217 1.7 3.5 0.00 0.00 0.00 66 1015.1
20260506003531 65 255 3.5 7.0 0.00 0.00 0.00 66 1015.3
20260506002529 65 272 2.6 5.2 0.00 0.00 0.00 66 1015.3
20260506001547 66 239 1.7 2.6 0.00 0.00 0.00 65 1015.3
20260506000525 66 229 2.6 7.0 0.00 0.00 0.00 64 1015.3
20260505235524 67 221 0.9 2.6 0.00 0.00 0.00 64 1015.4
20260505234542 67 237 2.6 5.2 0.00 0.00 0.00 64 1015.6
20260505233520 67 228 1.7 6.1 0.00 0.00 0.00 63 1015.7
20260505232518 68 248 3.5 5.2 0.00 0.00 0.00 63 1015.8
20260505231516 68 232 2.6 5.2 0.00 0.00 0.00 61 1015.8
20260505230615 69 222 2.6 5.2 0.00 0.00 0.00 62 1015.9
20260505225633 69 237 2.6 3.5 0.00 0.00 0.00 62 1015.9
20260505224611 68 229 0.9 3.5 0.00 0.00 0.00 62 1016.1
20260505223609 68 181 1.7 3.5 0.00 0.00 0.00 62 1016.2
20260505222608 69 254 1.7 6.1 0.00 0.00 0.00 62 1016.2
20260505221606 68 240 2.6 7.0 0.00 0.00 0.00 63 1016.4
20260505220625 67 234 0.9 2.6 0.00 0.00 0.00 64 1016.4
20260505215603 67 254 0.9 2.6 0.00 0.00 0.00 64 1016.3
20260505214601 67 238 0.9 6.1 0.00 0.00 0.00 65 1016.4
20260505213600 67 266 1.7 3.5 0.00 0.00 0.00 63 1016.6
20260505212558 67 273 0.0 0.9 0.00 0.00 0.00 65 1016.6
20260505211556 67 227 0.9 1.7 0.00 0.00 0.00 64 1016.6
20260505210554 66 234 0.9 3.5 0.00 0.00 0.00 66 1016.6
20260505205553 66 254 0.9 1.7 0.00 0.00 0.00 65 1016.6
20260505204631 66 263 0.9 2.6 0.00 0.00 0.00 63 1016.6
20260505203549 66 200 1.7 3.5 0.00 0.00 0.00 65 1016.7
20260505202548 66 220 1.7 3.5 0.00 0.00 0.00 67 1016.6